FALCON 9 R/B, 52818

Orbit data source: Space-Track

FALCON 9 R/B, 52818 is space debris in HEO originally from a launch on Wed, 08 Jun 2022 UTC launched from the Air Force Eastern Test Range (AFETR). Debris objects in space refer to the collection of defunct objects orbiting the Earth. Examples of debris include non-operational satellites, rocket bodies, and fragments generated from explosions, collisions, or faulty payload assembly.

Not visible in the next 10 days
Identifier
52818, 2022-061B
Orbit
HEO
Country
Flag of USUS
Related business
Manufacturer
SpaceX
Mission
Spacecraft
Bus & Motor
F9ST2, Unknown motor
Mass
~4,000 kg wet, ~4,000 kg dry
Launch date (UTC)
2022-06-08 (4 years ago)
Launch vehicle
Unknown
Launch site
Air Force Eastern Test Range (AFETR)
Object type
Payload
Rocket body
Debris
Shape & HBR
Cyl, 7.8 m
Radar Cross Section
39.980 m², Large (>1 m²)

Expand to show TLE details & history
Last TLE update: 20 hours ago

TLE from 20 hours ago
0 FALCON 9 R/B
1 52818U 22061B   25354.78800287  .00000180  00000-0  51973-3 0  9991
2 52818  18.6249  24.3285 7626034 157.8678 272.0467  1.81900989 23075
Epoch: 2025-12-20T18:54Z
TLE epoch observation values (Epoch: 2025-12-20T18:54:43.447Z)
Latitude
0.00005°
Longitude
11.01792°
Altitude
34,060.626 km
Speed
2.377 km/s
True Right ascension
01h 37m 14s
True Declination
0° 00' 00"
Sunlit
Object was in daylight at epoch
Visualization orbit readout
Latitude
Unknown
Longitude
Unknown
Altitude
Unknown
Speed
Unknown
Apparent Right ascension
Unknown
Apparent Declination
Unknown
Sunlit
N/A
Visualization observer readout
Local Sidereal Time
13:58:42
Azimuth
Unknown
Elevation
Unknown
Doppler factor
Unknown
Orbital elements
Apogee altitude
43,595.523 km
Perigee altitude
352.576 km
Semi-major axis
28,352.186 km
Eccentricity
0.7626
Inclination
18.6249°
RAAN
24.3285°
Arg. of periapsis
157.8678°
True anomaly
202.02699°
Mean anomaly
272.0467°
Eccentric anomaly
235.87581°
Mean motion
0.45464 °/min
Orbital period
791.84 mins
BSTAR
0.00051973
Loading maneuver chart data...
Computing Atmospheric mass density...
Loading historical data...
Loading historical data...
Loading historical data...
Loading historical data...
Loading historical data...
Loading historical data...
Loading historical data...
Other satellites on launch #61 in the year 2022 (2022-06-08 UTC)

Documentation

Showing up to 5 results
|